{"data":{"norad_id":59071,"epoch":"2026-05-25T05:07:17.129280Z","epoch_age_seconds":56777,"freshness":"FRESH","line1":"1 59071U 24039U   26145.21339270  .00004314  00000+0  33397-3 0  9994","line2":"2 59071  95.3920 219.5164 0145890  48.1584 313.1988 14.93590519121314","mean_motion":14.93590519,"eccentricity":0.014589,"inclination_deg":95.392,"raan_deg":219.5164,"arg_perigee_deg":48.1584,"mean_anomaly_deg":313.1988,"bstar":0.00033397,"rev_number":12131,"period_min":96.411967114261,"perigee_km":485.14033571888,"apogee_km":688.36184035157,"semimajor_km":6964.8880880352,"source":"CELESTRAK","updated_at":"2026-05-25T13:38:25.535141Z"}}